Time,TemperatureF,DewpointF,PressureIn,WindDirection,WindDirectionDegrees,WindSpeedMPH,WindSpeedGustMPH,Humidity,HourlyPrecipIn,Conditions,Clouds,dailyrainin,SoftwareType,DateUTC
2013-05-27 00:01:00,57.7,40.6,30.19,East,88,5.0,9.0,53,0.00,,,0.00,meteohub,2013-05-27 04:01:00,
2013-05-27 00:02:00,57.7,40.6,30.19,East,90,2.0,9.0,53,0.00,,,0.00,meteohub,2013-05-27 04:02:00,
2013-05-27 00:07:00,57.6,40.6,30.18,East,96,7.0,9.0,53,0.00,,,0.00,meteohub,2013-05-27 04:07:00,
2013-05-27 00:12:00,57.6,40.6,30.18,East,86,5.0,9.0,53,0.00,,,0.00,meteohub,2013-05-27 04:12:00,
2013-05-27 00:17:00,57.4,40.5,30.18,ESE,108,4.0,9.0,53,0.00,,,0.00,meteohub,2013-05-27 04:17:00,
2013-05-27 00:22:00,57.4,39.9,30.18,ESE,105,7.0,9.0,52,0.00,,,0.00,meteohub,2013-05-27 04:22:00,
2013-05-27 00:27:00,57.4,39.9,30.18,East,96,7.0,11.0,52,0.00,,,0.00,meteohub,2013-05-27 04:27:00,
2013-05-27 00:32:00,57.2,39.7,30.17,East,99,8.0,11.0,52,0.00,,,0.00,meteohub,2013-05-27 04:32:00,
2013-05-27 00:37:00,57.0,39.6,30.17,East,85,7.0,11.0,52,0.00,,,0.00,meteohub,2013-05-27 04:37:00,
2013-05-27 00:42:00,57.0,40.1,30.18,ENE,75,4.0,11.0,53,0.00,,,0.00,meteohub,2013-05-27 04:42:00,
2013-05-27 00:47:00,56.8,39.9,30.18,ESE,113,5.0,11.0,53,0.00,,,0.00,meteohub,2013-05-27 04:47:00,
2013-05-27 00:52:00,56.7,39.7,30.18,ESE,108,4.0,11.0,53,0.00,,,0.00,meteohub,2013-05-27 04:52:00,
2013-05-27 00:57:00,56.5,40.1,30.18,East,98,6.0,11.0,54,0.00,,,0.00,meteohub,2013-05-27 04:57:00,
2013-05-27 01:02:00,56.3,39.9,30.18,ESE,105,3.0,9.0,54,0.00,,,0.00,meteohub,2013-05-27 05:02:00,
2013-05-27 01:07:00,56.1,39.7,30.18,ENE,74,4.0,9.0,54,0.00,,,0.00,meteohub,2013-05-27 05:07:00,
2013-05-27 01:12:00,56.1,39.7,30.18,East,83,4.0,9.0,54,0.00,,,0.00,meteohub,2013-05-27 05:12:00,
2013-05-27 01:17:00,55.9,39.9,30.18,ENE,77,5.0,9.0,55,0.00,,,0.00,meteohub,2013-05-27 05:17:00,
2013-05-27 01:23:00,55.9,39.9,30.18,East,99,4.0,9.0,55,0.00,,,0.00,meteohub,2013-05-27 05:23:00,
2013-05-27 01:28:00,55.8,39.4,30.17,East,97,6.0,9.0,54,0.00,,,0.00,meteohub,2013-05-27 05:28:00,
2013-05-27 01:33:00,55.9,39.6,30.17,East,89,3.0,9.0,54,0.00,,,0.00,meteohub,2013-05-27 05:33:00,
2013-05-27 01:38:00,55.8,39.4,30.17,ESE,110,8.0,9.0,54,0.00,,,0.00,meteohub,2013-05-27 05:38:00,
2013-05-27 01:43:00,55.8,39.4,30.17,ESE,110,4.0,9.0,54,0.00,,,0.00,meteohub,2013-05-27 05:43:00,
2013-05-27 01:48:00,55.6,39.7,30.17,East,91,5.0,9.0,55,0.00,,,0.00,meteohub,2013-05-27 05:48:00,
2013-05-27 01:53:00,55.6,39.7,30.17,East,93,5.0,9.0,55,0.00,,,0.00,meteohub,2013-05-27 05:53:00,
2013-05-27 01:58:00,55.6,39.7,30.17,ENE,76,3.0,9.0,55,0.00,,,0.00,meteohub,2013-05-27 05:58:00,
2013-05-27 02:03:00,55.6,39.7,30.17,ESE,116,4.0,9.0,55,0.00,,,0.00,meteohub,2013-05-27 06:03:00,
2013-05-27 02:08:00,55.8,40.3,30.17,East,92,8.0,9.0,56,0.00,,,0.00,meteohub,2013-05-27 06:08:00,
2013-05-27 02:13:00,55.8,40.3,30.17,ESE,121,4.0,9.0,56,0.00,,,0.00,meteohub,2013-05-27 06:13:00,
2013-05-27 02:18:00,55.6,40.1,30.16,East,96,5.0,11.0,56,0.00,,,0.00,meteohub,2013-05-27 06:18:00,
2013-05-27 02:23:00,55.6,40.6,30.17,ESE,113,3.0,11.0,57,0.00,,,0.00,meteohub,2013-05-27 06:23:00,
2013-05-27 02:28:00,55.6,40.6,30.16,East,101,5.0,11.0,57,0.00,,,0.00,meteohub,2013-05-27 06:28:00,
2013-05-27 02:33:00,55.4,40.8,30.16,SE,127,4.0,11.0,58,0.00,,,0.00,meteohub,2013-05-27 06:33:00,
2013-05-27 02:38:00,55.2,40.6,30.16,ESE,110,9.0,11.0,58,0.00,,,0.00,meteohub,2013-05-27 06:38:00,
2013-05-27 02:43:00,55.0,41.0,30.16,East,79,4.0,10.0,59,0.00,,,0.00,meteohub,2013-05-27 06:43:00,
2013-05-27 02:48:00,54.9,40.8,30.16,ESE,110,3.0,10.0,59,0.00,,,0.00,meteohub,2013-05-27 06:48:00,
2013-05-27 02:53:00,54.9,41.2,30.15,ESE,120,6.0,10.0,60,0.00,,,0.00,meteohub,2013-05-27 06:53:00,
2013-05-27 02:58:00,54.7,41.0,30.15,ESE,110,6.0,10.0,60,0.00,,,0.00,meteohub,2013-05-27 06:58:00,
2013-05-27 03:03:00,54.7,41.5,30.15,ESE,110,4.0,10.0,61,0.00,,,0.00,meteohub,2013-05-27 07:03:00,
2013-05-27 03:08:00,54.5,41.4,30.15,East,84,5.0,10.0,61,0.00,,,0.00,meteohub,2013-05-27 07:08:00,
2013-05-27 03:13:00,54.3,41.2,30.15,ESE,108,4.0,10.0,61,0.00,,,0.00,meteohub,2013-05-27 07:13:00,
2013-05-27 03:18:00,54.1,41.4,30.15,East,95,7.0,10.0,62,0.00,,,0.00,meteohub,2013-05-27 07:18:00,
2013-05-27 03:23:00,54.1,41.4,30.15,ESE,105,4.0,10.0,62,0.00,,,0.00,meteohub,2013-05-27 07:23:00,
2013-05-27 03:28:00,54.0,41.7,30.15,East,85,7.0,10.0,63,0.00,,,0.00,meteohub,2013-05-27 07:28:00,
2013-05-27 03:33:00,53.8,41.5,30.16,ESE,122,5.0,10.0,63,0.00,,,0.00,meteohub,2013-05-27 07:33:00,
2013-05-27 03:38:00,53.6,41.7,30.16,ESE,108,5.0,10.0,64,0.00,,,0.00,meteohub,2013-05-27 07:38:00,
2013-05-27 03:44:00,53.4,41.9,30.16,SSE,155,4.0,10.0,65,0.00,,,0.00,meteohub,2013-05-27 07:44:00,
2013-05-27 03:49:00,53.2,41.7,30.16,SE,128,5.0,10.0,65,0.00,,,0.00,meteohub,2013-05-27 07:49:00,
2013-05-27 03:54:00,53.2,41.7,30.15,ESE,115,5.0,10.0,65,0.00,,,0.00,meteohub,2013-05-27 07:54:00,
2013-05-27 03:59:00,53.1,42.1,30.15,SE,144,4.0,9.0,66,0.00,,,0.00,meteohub,2013-05-27 07:59:00,
2013-05-27 04:04:00,53.1,42.1,30.15,SE,125,5.0,9.0,66,0.00,,,0.00,meteohub,2013-05-27 08:04:00,
2013-05-27 04:09:00,53.1,42.1,30.15,SE,125,4.0,9.0,66,0.00,,,0.00,meteohub,2013-05-27 08:09:00,
2013-05-27 04:14:00,53.1,42.1,30.15,ESE,117,7.0,9.0,66,0.00,,,0.00,meteohub,2013-05-27 08:14:00,
2013-05-27 04:19:00,53.1,41.5,30.15,ESE,108,5.0,9.0,65,0.00,,,0.00,meteohub,2013-05-27 08:19:00,
2013-05-27 04:24:00,53.2,41.7,30.14,ESE,115,7.0,9.0,65,0.00,,,0.00,meteohub,2013-05-27 08:24:00,
2013-05-27 04:29:00,53.2,41.7,30.15,SE,124,5.0,9.0,65,0.00,,,0.00,meteohub,2013-05-27 08:29:00,
2013-05-27 04:34:00,53.2,41.7,30.14,ESE,119,4.0,9.0,65,0.00,,,0.00,meteohub,2013-05-27 08:34:00,
2013-05-27 04:39:00,53.1,41.5,30.14,SE,138,4.0,9.0,65,0.00,,,0.00,meteohub,2013-05-27 08:39:00,
2013-05-27 04:44:00,53.1,41.5,30.14,ESE,104,11.0,11.0,65,0.00,,,0.00,meteohub,2013-05-27 08:44:00,
2013-05-27 04:49:00,53.1,41.5,30.14,East,91,4.0,10.0,65,0.00,,,0.00,meteohub,2013-05-27 08:49:00,
2013-05-27 04:54:00,53.1,42.1,30.14,SE,131,6.0,10.0,66,0.00,,,0.00,meteohub,2013-05-27 08:54:00,
2013-05-27 04:59:00,52.9,41.9,30.14,ESE,113,5.0,10.0,66,0.00,,,0.00,meteohub,2013-05-27 08:59:00,
2013-05-27 05:04:00,52.7,41.7,30.14,SE,138,5.0,10.0,66,0.00,,,0.00,meteohub,2013-05-27 09:04:00,
2013-05-27 05:09:00,52.7,41.7,30.14,SE,125,6.0,10.0,66,0.00,,,0.00,meteohub,2013-05-27 09:09:00,
2013-05-27 05:14:00,52.5,41.9,30.14,SE,130,4.0,10.0,67,0.00,,,0.00,meteohub,2013-05-27 09:14:00,
2013-05-27 05:19:00,52.5,41.9,30.14,ESE,113,6.0,10.0,67,0.00,,,0.00,meteohub,2013-05-27 09:19:00,
2013-05-27 05:24:00,52.5,41.9,30.14,SE,124,8.0,12.0,67,0.00,,,0.00,meteohub,2013-05-27 09:24:00,
2013-05-27 05:30:00,52.5,41.5,30.14,East,92,10.0,12.0,66,0.00,,,0.00,meteohub,2013-05-27 09:30:00,
2013-05-27 05:35:00,52.9,41.9,30.14,ESE,104,5.0,12.0,66,0.00,,,0.00,meteohub,2013-05-27 09:35:00,
2013-05-27 05:40:00,52.7,41.7,30.14,ESE,113,8.0,12.0,66,0.00,,,0.00,meteohub,2013-05-27 09:40:00,
2013-05-27 05:45:00,52.7,41.7,30.13,East,99,10.0,12.0,66,0.00,,,0.00,meteohub,2013-05-27 09:45:00,
2013-05-27 05:50:00,52.7,41.7,30.14,ESE,105,8.0,12.0,66,0.00,,,0.00,meteohub,2013-05-27 09:50:00,
2013-05-27 05:55:00,52.7,41.7,30.13,ESE,119,5.0,12.0,66,0.00,,,0.00,meteohub,2013-05-27 09:55:00,
2013-05-27 06:00:00,52.7,41.7,30.13,ESE,115,5.0,12.0,66,0.00,,,0.00,meteohub,2013-05-27 10:00:00,
2013-05-27 06:05:00,52.5,41.9,30.13,ESE,110,6.0,14.0,67,0.00,,,0.00,meteohub,2013-05-27 10:05:00,
2013-05-27 06:10:00,52.5,41.9,30.13,East,94,9.0,14.0,67,0.00,,,0.00,meteohub,2013-05-27 10:10:00,
2013-05-27 06:15:00,52.5,41.9,30.13,ESE,108,7.0,14.0,67,0.00,,,0.00,meteohub,2013-05-27 10:15:00,
2013-05-27 06:20:00,52.5,41.5,30.13,SE,124,3.0,14.0,66,0.00,,,0.00,meteohub,2013-05-27 10:20:00,
2013-05-27 06:25:00,52.5,41.5,30.13,ENE,71,6.0,14.0,66,0.00,,,0.00,meteohub,2013-05-27 10:25:00,
2013-05-27 06:30:00,52.7,41.7,30.13,ESE,113,6.0,14.0,66,0.00,,,0.00,meteohub,2013-05-27 10:30:00,
2013-05-27 06:35:00,52.9,41.9,30.13,East,98,5.0,14.0,66,0.00,,,0.00,meteohub,2013-05-27 10:35:00,
2013-05-27 06:40:00,52.9,41.9,30.14,SE,130,4.0,14.0,66,0.00,,,0.00,meteohub,2013-05-27 10:40:00,
2013-05-27 06:45:00,53.1,42.1,30.14,East,91,8.0,14.0,66,0.00,,,0.00,meteohub,2013-05-27 10:45:00,
2013-05-27 06:51:00,53.1,41.5,30.14,ESE,110,5.0,14.0,65,0.00,,,0.00,meteohub,2013-05-27 10:51:00,
2013-05-27 06:56:00,53.2,41.4,30.13,SE,127,6.0,11.0,64,0.00,,,0.00,meteohub,2013-05-27 10:56:00,
2013-05-27 07:01:00,53.4,41.5,30.14,ESE,115,4.0,11.0,64,0.00,,,0.00,meteohub,2013-05-27 11:01:00,
2013-05-27 07:06:00,53.4,41.5,30.14,ESE,113,5.0,11.0,64,0.00,,,0.00,meteohub,2013-05-27 11:06:00,
2013-05-27 07:11:00,53.8,41.9,30.14,ESE,102,8.0,11.0,64,0.00,,,0.00,meteohub,2013-05-27 11:11:00,
2013-05-27 07:16:00,53.8,41.9,30.14,East,82,6.0,11.0,64,0.00,,,0.00,meteohub,2013-05-27 11:16:00,
2013-05-27 07:21:00,53.8,41.9,30.14,ESE,102,5.0,11.0,64,0.00,,,0.00,meteohub,2013-05-27 11:21:00,
2013-05-27 07:26:00,54.0,42.1,30.14,SE,127,4.0,11.0,64,0.00,,,0.00,meteohub,2013-05-27 11:26:00,
2013-05-27 07:31:00,54.0,41.7,30.14,East,81,8.0,11.0,63,0.00,,,0.00,meteohub,2013-05-27 11:31:00,
2013-05-27 07:36:00,54.1,41.9,30.14,East,96,9.0,11.0,63,0.00,,,0.00,meteohub,2013-05-27 11:36:00,
2013-05-27 07:41:00,54.1,41.9,30.14,ESE,107,7.0,11.0,63,0.00,,,0.00,meteohub,2013-05-27 11:41:00,
2013-05-27 07:46:00,54.3,42.1,30.13,East,89,5.0,10.0,63,0.00,,,0.00,meteohub,2013-05-27 11:46:00,
2013-05-27 07:51:00,54.5,41.7,30.13,ESE,118,9.0,10.0,62,0.00,,,0.00,meteohub,2013-05-27 11:51:00,
2013-05-27 07:56:00,54.7,41.5,30.13,ESE,102,5.0,10.0,61,0.00,,,0.00,meteohub,2013-05-27 11:56:00,
2013-05-27 08:01:00,54.9,42.1,30.13,ESE,123,6.0,10.0,62,0.00,,,0.00,meteohub,2013-05-27 12:01:00,
2013-05-27 08:07:00,55.0,42.6,30.13,ESE,117,5.0,10.0,63,0.00,,,0.00,meteohub,2013-05-27 12:07:00,
2013-05-27 08:12:00,55.2,42.4,30.13,SE,143,7.0,10.0,62,0.00,,,0.00,meteohub,2013-05-27 12:12:00,
2013-05-27 08:17:00,55.6,42.3,30.14,SE,128,6.0,10.0,61,0.00,,,0.00,meteohub,2013-05-27 12:17:00,
2013-05-27 08:22:00,55.8,43.0,30.14,SE,128,6.0,10.0,62,0.00,,,0.00,meteohub,2013-05-27 12:22:00,
2013-05-27 08:27:00,55.8,42.4,30.14,ESE,105,6.0,10.0,61,0.00,,,0.00,meteohub,2013-05-27 12:27:00,
2013-05-27 08:32:00,55.9,43.2,30.14,SE,139,4.0,10.0,62,0.00,,,0.00,meteohub,2013-05-27 12:32:00,
2013-05-27 08:37:00,55.9,42.3,30.14,ESE,121,7.0,9.0,60,0.00,,,0.00,meteohub,2013-05-27 12:37:00,
2013-05-27 08:42:00,56.1,42.4,30.13,ESE,122,8.0,9.0,60,0.00,,,0.00,meteohub,2013-05-27 12:42:00,
2013-05-27 08:47:00,56.3,43.0,30.13,ESE,113,6.0,9.0,61,0.00,,,0.00,meteohub,2013-05-27 12:47:00,
2013-05-27 08:52:00,56.5,42.8,30.13,ESE,113,3.0,9.0,60,0.00,,,0.00,meteohub,2013-05-27 12:52:00,
2013-05-27 08:57:00,56.7,43.0,30.13,ESE,120,5.0,9.0,60,0.00,,,0.00,meteohub,2013-05-27 12:57:00,
2013-05-27 09:02:00,56.7,43.0,30.13,SE,125,8.0,9.0,60,0.00,,,0.00,meteohub,2013-05-27 13:02:00,
2013-05-27 09:07:00,56.8,42.6,30.13,SE,130,4.0,9.0,59,0.00,,,0.00,meteohub,2013-05-27 13:07:00,
2013-05-27 09:12:00,57.0,42.4,30.13,ESE,119,11.0,11.0,58,0.00,,,0.00,meteohub,2013-05-27 13:12:00,
2013-05-27 09:17:00,57.2,42.6,30.13,ESE,110,6.0,13.0,58,0.00,,,0.00,meteohub,2013-05-27 13:17:00,
2013-05-27 09:22:00,57.2,42.1,30.13,SE,127,6.0,13.0,57,0.00,,,0.00,meteohub,2013-05-27 13:22:00,
2013-05-27 09:27:00,57.2,42.6,30.13,ESE,110,5.0,13.0,58,0.00,,,0.00,meteohub,2013-05-27 13:27:00,
2013-05-27 09:32:00,57.2,42.1,30.13,SE,131,5.0,13.0,57,0.00,,,0.00,meteohub,2013-05-27 13:32:00,
2013-05-27 09:37:00,57.4,42.8,30.13,East,87,6.0,13.0,58,0.00,,,0.00,meteohub,2013-05-27 13:37:00,
2013-05-27 09:42:00,57.4,42.8,30.13,ESE,116,9.0,13.0,58,0.00,,,0.00,meteohub,2013-05-27 13:42:00,
2013-05-27 09:47:00,57.4,42.8,30.13,ESE,110,11.0,11.0,58,0.00,,,0.00,meteohub,2013-05-27 13:47:00,
2013-05-27 09:53:00,57.2,42.6,30.13,East,93,6.0,10.0,58,0.00,,,0.00,meteohub,2013-05-27 13:53:00,
2013-05-27 09:58:00,57.2,43.0,30.13,East,96,6.0,10.0,59,0.00,,,0.00,meteohub,2013-05-27 13:58:00,
2013-05-27 10:03:00,57.2,43.0,30.13,ESE,115,3.0,10.0,59,0.00,,,0.00,meteohub,2013-05-27 14:03:00,
2013-05-27 10:08:00,57.4,43.7,30.13,ESE,121,4.0,10.0,60,0.00,,,0.00,meteohub,2013-05-27 14:08:00,
2013-05-27 10:13:00,57.4,43.7,30.12,ESE,119,5.0,10.0,60,0.00,,,0.00,meteohub,2013-05-27 14:13:00,
2013-05-27 10:18:00,57.4,43.2,30.12,ESE,113,7.0,10.0,59,0.00,,,0.00,meteohub,2013-05-27 14:18:00,
2013-05-27 10:23:00,57.4,43.2,30.12,ESE,118,12.0,13.0,59,0.00,,,0.00,meteohub,2013-05-27 14:23:00,
2013-05-27 10:28:00,57.6,43.3,30.11,ESE,118,8.0,13.0,59,0.00,,,0.00,meteohub,2013-05-27 14:28:00,
2013-05-27 10:33:00,57.6,43.3,30.11,ESE,113,7.0,13.0,59,0.00,,,0.00,meteohub,2013-05-27 14:33:00,
2013-05-27 10:38:00,57.7,43.5,30.11,East,101,11.0,13.0,59,0.00,,,0.00,meteohub,2013-05-27 14:38:00,
2013-05-27 10:43:00,57.7,43.5,30.11,ESE,113,8.0,13.0,59,0.00,,,0.00,meteohub,2013-05-27 14:43:00,
2013-05-27 10:48:00,57.6,43.3,30.11,ESE,102,10.0,13.0,59,0.00,,,0.00,meteohub,2013-05-27 14:48:00,
2013-05-27 10:53:00,57.6,43.3,30.11,ESE,116,9.0,13.0,59,0.00,,,0.00,meteohub,2013-05-27 14:53:00,
2013-05-27 10:58:00,57.6,43.3,30.11,SE,130,7.0,15.0,59,0.00,,,0.00,meteohub,2013-05-27 14:58:00,
2013-05-27 11:03:00,57.6,43.7,30.10,SE,131,12.0,15.0,60,0.00,,,0.00,meteohub,2013-05-27 15:03:00,
2013-05-27 11:08:00,57.7,43.5,30.10,ESE,116,10.0,15.0,59,0.00,,,0.00,meteohub,2013-05-27 15:08:00,
2013-05-27 11:13:00,57.7,43.9,30.10,SE,135,10.0,15.0,60,0.00,,,0.00,meteohub,2013-05-27 15:13:00,
2013-05-27 11:18:00,57.7,44.4,30.09,SE,135,10.0,15.0,61,0.00,,,0.00,meteohub,2013-05-27 15:18:00,
2013-05-27 11:23:00,57.7,43.9,30.09,ESE,122,7.0,15.0,60,0.00,,,0.00,meteohub,2013-05-27 15:23:00,
2013-05-27 11:28:00,57.9,44.6,30.09,SE,134,9.0,15.0,61,0.00,,,0.00,meteohub,2013-05-27 15:28:00,
2013-05-27 11:34:00,57.9,44.6,30.09,ESE,110,11.0,15.0,61,0.00,,,0.00,meteohub,2013-05-27 15:34:00,
2013-05-27 11:39:00,58.1,44.8,30.09,SSE,149,13.0,15.0,61,0.00,,,0.00,meteohub,2013-05-27 15:39:00,
2013-05-27 11:44:00,58.3,44.4,30.09,SE,136,12.0,15.0,60,0.00,,,0.00,meteohub,2013-05-27 15:44:00,
2013-05-27 11:49:00,58.3,45.0,30.10,SE,138,7.0,15.0,61,0.00,,,0.00,meteohub,2013-05-27 15:49:00,
2013-05-27 11:54:00,58.3,45.0,30.10,SSE,150,14.0,15.0,61,0.00,,,0.00,meteohub,2013-05-27 15:54:00,
2013-05-27 11:59:00,58.3,45.0,30.09,ESE,122,13.0,15.0,61,0.00,,,0.00,meteohub,2013-05-27 15:59:00,
2013-05-27 12:04:00,57.7,44.8,30.09,SE,143,12.0,15.0,62,0.00,,,0.00,meteohub,2013-05-27 16:04:00,
2013-05-27 12:09:00,56.7,45.9,30.09,SE,140,9.0,15.0,67,0.00,,,0.00,meteohub,2013-05-27 16:09:00,
2013-05-27 12:14:00,56.1,45.7,30.09,ESE,113,13.0,15.0,68,0.00,,,0.00,meteohub,2013-05-27 16:14:00,
2013-05-27 12:19:00,56.5,45.3,30.09,ESE,122,16.0,24.0,66,0.00,,,0.00,meteohub,2013-05-27 16:19:00,
2013-05-27 12:24:00,56.7,45.5,30.09,SE,132,14.0,24.0,66,0.00,,,0.00,meteohub,2013-05-27 16:24:00,
2013-05-27 12:29:00,56.7,45.5,30.09,SE,132,9.0,24.0,66,0.00,,,0.00,meteohub,2013-05-27 16:29:00,
2013-05-27 12:34:00,56.3,46.6,30.08,SE,128,10.0,24.0,70,0.00,,,0.00,meteohub,2013-05-27 16:34:00,
2013-05-27 12:39:00,55.6,47.5,30.09,SSE,149,16.0,24.0,74,0.00,,,0.00,meteohub,2013-05-27 16:39:00,
2013-05-27 12:44:00,54.7,48.0,30.09,ESE,121,9.0,24.0,78,0.00,,,0.00,meteohub,2013-05-27 16:44:00,
2013-05-27 12:49:00,54.1,48.0,30.10,ESE,116,12.0,24.0,80,0.00,,,0.00,meteohub,2013-05-27 16:49:00,
2013-05-27 12:54:00,53.4,48.0,30.10,ESE,122,9.0,24.0,82,0.00,,,0.00,meteohub,2013-05-27 16:54:00,
2013-05-27 12:59:00,53.1,48.4,30.10,SE,134,7.0,24.0,84,0.00,,,0.00,meteohub,2013-05-27 16:59:00,
2013-05-27 13:04:00,52.9,48.6,30.09,East,99,8.0,24.0,85,0.00,,,0.00,meteohub,2013-05-27 17:04:00,
2013-05-27 13:10:00,52.9,48.7,30.09,ESE,105,7.0,19.0,86,0.00,,,0.00,meteohub,2013-05-27 17:10:00,
2013-05-27 13:15:00,52.9,49.1,30.09,ESE,122,8.0,19.0,87,0.00,,,0.00,meteohub,2013-05-27 17:15:00,
2013-05-27 13:20:00,52.9,49.1,30.09,ESE,105,5.0,19.0,87,0.00,,,0.00,meteohub,2013-05-27 17:20:00,
2013-05-27 13:25:00,53.1,49.6,30.09,ESE,119,4.0,19.0,88,0.00,,,0.00,meteohub,2013-05-27 17:25:00,
2013-05-27 13:30:00,53.1,49.3,30.09,ESE,108,6.0,19.0,87,0.00,,,0.00,meteohub,2013-05-27 17:30:00,
2013-05-27 13:35:00,52.9,49.5,30.09,SE,135,14.0,19.0,88,0.00,,,0.01,meteohub,2013-05-27 17:35:00,
2013-05-27 13:40:00,52.9,49.1,30.09,East,96,9.0,19.0,87,0.00,,,0.01,meteohub,2013-05-27 17:40:00,
2013-05-27 13:45:00,52.9,49.5,30.09,ESE,107,6.0,19.0,88,0.00,,,0.01,meteohub,2013-05-27 17:45:00,
2013-05-27 13:50:00,52.9,49.6,30.09,ESE,110,10.0,19.0,89,0.02,,,0.01,meteohub,2013-05-27 17:50:00,
2013-05-27 13:55:00,52.7,49.3,30.09,East,85,5.0,19.0,88,0.02,,,0.01,meteohub,2013-05-27 17:55:00,
2013-05-27 14:00:00,52.5,48.7,30.09,East,82,12.0,19.0,87,0.02,,,0.01,meteohub,2013-05-27 18:00:00,
2013-05-27 14:05:00,52.5,48.7,30.09,East,95,11.0,19.0,87,0.02,,,0.01,meteohub,2013-05-27 18:05:00,
2013-05-27 14:10:00,52.5,48.7,30.09,ESE,119,7.0,19.0,87,0.02,,,0.01,meteohub,2013-05-27 18:10:00,
2013-05-27 14:15:00,52.5,49.1,30.09,East,99,7.0,19.0,88,0.02,,,0.04,meteohub,2013-05-27 18:15:00,
2013-05-27 14:20:00,52.5,49.1,30.08,ESE,122,9.0,19.0,88,0.02,,,0.04,meteohub,2013-05-27 18:20:00,
2013-05-27 14:25:00,52.5,49.5,30.07,East,82,9.0,19.0,89,0.04,,,0.04,meteohub,2013-05-27 18:25:00,
2013-05-27 14:30:00,52.3,49.3,30.07,East,95,9.0,16.0,89,0.04,,,0.04,meteohub,2013-05-27 18:30:00,
2013-05-27 14:35:00,52.3,49.5,30.07,East,94,10.0,16.0,90,0.04,,,0.04,meteohub,2013-05-27 18:35:00,
2013-05-27 14:41:00,52.3,49.5,30.07,East,96,10.0,16.0,90,0.04,,,0.04,meteohub,2013-05-27 18:41:00,
2013-05-27 14:46:00,52.3,49.8,30.07,ENE,71,9.0,16.0,91,0.04,,,0.04,meteohub,2013-05-27 18:46:00,
2013-05-27 14:51:00,52.3,49.8,30.06,East,101,8.0,16.0,91,0.04,,,0.04,meteohub,2013-05-27 18:51:00,
2013-05-27 14:56:00,52.3,49.8,30.06,East,93,7.0,16.0,91,0.04,,,0.04,meteohub,2013-05-27 18:56:00,
2013-05-27 15:01:00,52.3,49.8,30.05,ENE,68,7.0,16.0,91,0.00,,,0.04,meteohub,2013-05-27 19:01:00,
2013-05-27 15:06:00,52.5,50.2,30.05,East,92,15.0,16.0,92,0.00,,,0.04,meteohub,2013-05-27 19:06:00,
2013-05-27 15:11:00,52.5,50.0,30.05,ENE,74,7.0,16.0,91,0.00,,,0.04,meteohub,2013-05-27 19:11:00,
2013-05-27 15:16:00,52.7,50.2,30.05,ESE,105,10.0,16.0,91,0.00,,,0.04,meteohub,2013-05-27 19:16:00,
2013-05-27 15:21:00,52.9,50.0,30.05,East,91,7.0,16.0,90,0.00,,,0.04,meteohub,2013-05-27 19:21:00,
2013-05-27 15:26:00,52.9,50.0,30.05,SE,130,14.0,16.0,90,0.00,,,0.04,meteohub,2013-05-27 19:26:00,
2013-05-27 15:31:00,52.9,49.6,30.05,ESE,110,15.0,16.0,89,0.00,,,0.04,meteohub,2013-05-27 19:31:00,
2013-05-27 15:36:00,52.9,49.6,30.05,ESE,107,13.0,23.0,89,0.00,,,0.04,meteohub,2013-05-27 19:36:00,
2013-05-27 15:41:00,52.9,49.6,30.05,East,82,7.0,23.0,89,0.00,,,0.04,meteohub,2013-05-27 19:41:00,
2013-05-27 15:46:00,52.9,50.0,30.05,East,88,6.0,23.0,90,0.00,,,0.04,meteohub,2013-05-27 19:46:00,
2013-05-27 15:52:00,52.9,50.0,30.05,East,91,7.0,23.0,90,0.00,,,0.04,meteohub,2013-05-27 19:52:00,
2013-05-27 15:57:00,52.7,49.8,30.05,ESE,116,8.0,21.0,90,0.00,,,0.04,meteohub,2013-05-27 19:57:00,
2013-05-27 16:02:00,52.5,49.6,30.05,East,94,18.0,21.0,90,0.00,,,0.04,meteohub,2013-05-27 20:02:00,
2013-05-27 16:07:00,52.5,49.6,30.05,ESE,113,9.0,21.0,90,0.00,,,0.04,meteohub,2013-05-27 20:07:00,
2013-05-27 16:12:00,52.5,49.6,30.05,ESE,105,13.0,21.0,90,0.00,,,0.04,meteohub,2013-05-27 20:12:00,
2013-05-27 16:17:00,52.3,49.5,30.04,ESE,107,13.0,21.0,90,0.00,,,0.04,meteohub,2013-05-27 20:17:00,
2013-05-27 16:22:00,52.3,49.8,30.04,East,88,10.0,18.0,91,0.00,,,0.04,meteohub,2013-05-27 20:22:00,
2013-05-27 16:27:00,52.2,49.6,30.04,SE,127,7.0,18.0,91,0.00,,,0.04,meteohub,2013-05-27 20:27:00,
2013-05-27 16:32:00,52.2,49.8,30.03,East,79,8.0,18.0,92,0.00,,,0.04,meteohub,2013-05-27 20:32:00,
2013-05-27 16:37:00,52.2,49.8,30.03,ESE,102,10.0,18.0,92,0.00,,,0.05,meteohub,2013-05-27 20:37:00,
2013-05-27 16:42:00,52.0,49.6,30.03,ESE,102,7.0,14.0,92,0.02,,,0.05,meteohub,2013-05-27 20:42:00,
2013-05-27 16:47:00,51.8,49.8,30.02,ENE,74,16.0,16.0,93,0.02,,,0.05,meteohub,2013-05-27 20:47:00,
2013-05-27 16:52:00,51.6,49.6,30.02,ENE,60,7.0,14.0,93,0.02,,,0.05,meteohub,2013-05-27 20:52:00,
2013-05-27 16:57:00,51.6,49.6,30.02,SSE,150,11.0,14.0,93,0.02,,,0.08,meteohub,2013-05-27 20:57:00,
2013-05-27 17:02:00,51.6,50.0,30.02,East,101,6.0,14.0,94,0.02,,,0.08,meteohub,2013-05-27 21:02:00,
2013-05-27 17:07:00,51.6,50.0,30.01,East,82,7.0,14.0,94,0.05,,,0.08,meteohub,2013-05-27 21:07:00,
2013-05-27 17:12:00,51.6,50.0,30.01,ENE,68,11.0,17.0,94,0.05,,,0.08,meteohub,2013-05-27 21:12:00,
2013-05-27 17:17:00,51.6,50.0,30.01,East,96,5.0,17.0,94,0.05,,,0.08,meteohub,2013-05-27 21:17:00,
2013-05-27 17:22:00,51.6,50.0,30.01,East,88,4.0,17.0,94,0.05,,,0.08,meteohub,2013-05-27 21:22:00,
2013-05-27 17:27:00,51.6,50.0,30.01,East,99,4.0,17.0,94,0.05,,,0.10,meteohub,2013-05-27 21:27:00,
2013-05-27 17:32:00,51.8,50.4,30.01,East,101,9.0,17.0,95,0.06,,,0.10,meteohub,2013-05-27 21:32:00,
2013-05-27 17:37:00,51.8,50.4,30.01,East,86,5.0,14.0,95,0.06,,,0.10,meteohub,2013-05-27 21:37:00,
2013-05-27 17:43:00,51.8,50.4,30.00,East,88,12.0,14.0,95,0.06,,,0.10,meteohub,2013-05-27 21:43:00,
2013-05-27 17:48:00,51.8,50.2,30.00,East,86,6.0,14.0,94,0.06,,,0.11,meteohub,2013-05-27 21:48:00,
2013-05-27 17:53:00,51.8,50.2,30.00,East,92,6.0,14.0,94,0.06,,,0.11,meteohub,2013-05-27 21:53:00,
2013-05-27 17:58:00,51.6,50.2,30.00,ESE,104,11.0,15.0,95,0.04,,,0.11,meteohub,2013-05-27 21:58:00,
2013-05-27 18:03:00,51.8,50.4,29.99,SE,130,7.0,15.0,95,0.04,,,0.11,meteohub,2013-05-27 22:03:00,
2013-05-27 18:08:00,51.8,50.4,29.99,ESE,110,7.0,15.0,95,0.04,,,0.11,meteohub,2013-05-27 22:08:00,
2013-05-27 18:13:00,51.8,50.2,29.99,ESE,121,12.0,15.0,94,0.04,,,0.11,meteohub,2013-05-27 22:13:00,
2013-05-27 18:18:00,51.8,50.2,29.99,East,82,6.0,15.0,94,0.04,,,0.11,meteohub,2013-05-27 22:18:00,
2013-05-27 18:23:00,51.8,50.2,29.99,East,99,8.0,15.0,94,0.04,,,0.11,meteohub,2013-05-27 22:23:00,
2013-05-27 18:28:00,51.8,50.2,29.99,ENE,77,8.0,15.0,94,0.01,,,0.11,meteohub,2013-05-27 22:28:00,
2013-05-27 18:33:00,51.6,50.0,29.99,ENE,65,11.0,14.0,94,0.01,,,0.11,meteohub,2013-05-27 22:33:00,
2013-05-27 18:38:00,51.6,50.0,29.98,East,86,10.0,14.0,94,0.01,,,0.11,meteohub,2013-05-27 22:38:00,
2013-05-27 18:43:00,51.6,50.0,29.98,East,94,6.0,14.0,94,0.01,,,0.11,meteohub,2013-05-27 22:43:00,
2013-05-27 18:48:00,51.6,50.0,29.98,East,96,8.0,14.0,94,0.01,,,0.11,meteohub,2013-05-27 22:48:00,
2013-05-27 18:53:00,51.6,50.0,29.97,East,99,7.0,14.0,94,0.01,,,0.11,meteohub,2013-05-27 22:53:00,
2013-05-27 18:58:00,51.6,50.0,29.97,East,91,8.0,14.0,94,0.01,,,0.11,meteohub,2013-05-27 22:58:00,
2013-05-27 19:03:00,51.6,50.0,29.97,East,89,5.0,14.0,94,0.01,,,0.11,meteohub,2013-05-27 23:03:00,
2013-05-27 19:08:00,51.6,50.0,29.96,ESE,105,13.0,17.0,94,0.01,,,0.11,meteohub,2013-05-27 23:08:00,
2013-05-27 19:13:00,51.6,50.0,29.96,East,88,9.0,17.0,94,0.01,,,0.11,meteohub,2013-05-27 23:13:00,
2013-05-27 19:18:00,51.6,50.0,29.96,East,101,7.0,17.0,94,0.01,,,0.11,meteohub,2013-05-27 23:18:00,
2013-05-27 19:23:00,51.6,50.0,29.96,East,100,6.0,17.0,94,0.01,,,0.12,meteohub,2013-05-27 23:23:00,
2013-05-27 19:28:00,51.6,50.0,29.96,East,86,3.0,17.0,94,0.01,,,0.12,meteohub,2013-05-27 23:28:00,
2013-05-27 19:33:00,51.6,50.0,29.97,ESE,119,12.0,16.0,94,0.01,,,0.12,meteohub,2013-05-27 23:33:00,
2013-05-27 19:38:00,51.6,50.0,29.97,ENE,77,6.0,16.0,94,0.01,,,0.12,meteohub,2013-05-27 23:38:00,
2013-05-27 19:44:00,51.6,50.0,29.96,ESE,116,6.0,16.0,94,0.01,,,0.12,meteohub,2013-05-27 23:44:00,
2013-05-27 19:49:00,51.6,50.0,29.96,SE,130,5.0,16.0,94,0.01,,,0.12,meteohub,2013-05-27 23:49:00,
2013-05-27 19:54:00,51.6,50.2,29.96,ESE,121,9.0,16.0,95,0.01,,,0.12,meteohub,2013-05-27 23:54:00,
2013-05-27 19:59:00,51.6,50.0,29.96,ESE,108,6.0,13.0,94,0.00,,,0.12,meteohub,2013-05-27 23:59:00,
2013-05-27 20:04:00,51.6,50.0,29.96,ESE,110,9.0,13.0,94,0.00,,,0.12,meteohub,2013-05-28 00:04:00,
2013-05-27 20:09:00,51.6,50.0,29.95,East,98,7.0,13.0,94,0.00,,,0.12,meteohub,2013-05-28 00:09:00,
2013-05-27 20:14:00,51.8,50.2,29.95,ENE,77,6.0,13.0,94,0.00,,,0.12,meteohub,2013-05-28 00:14:00,
2013-05-27 20:19:00,51.8,50.2,29.96,East,101,10.0,13.0,94,0.00,,,0.12,meteohub,2013-05-28 00:19:00,
2013-05-27 20:24:00,51.8,50.2,29.96,SE,138,11.0,18.0,94,0.00,,,0.12,meteohub,2013-05-28 00:24:00,
2013-05-27 20:29:00,52.0,50.4,29.95,SE,124,12.0,18.0,94,0.00,,,0.12,meteohub,2013-05-28 00:29:00,
2013-05-27 20:34:00,52.0,50.4,29.94,East,101,12.0,18.0,94,0.00,,,0.12,meteohub,2013-05-28 00:34:00,
2013-05-27 20:39:00,52.0,50.4,29.94,ESE,110,9.0,18.0,94,0.00,,,0.12,meteohub,2013-05-28 00:39:00,
2013-05-27 20:45:00,52.0,50.4,29.94,ESE,106,7.0,18.0,94,0.00,,,0.12,meteohub,2013-05-28 00:45:00,
2013-05-27 20:50:00,52.0,50.4,29.94,ESE,115,10.0,19.0,94,0.00,,,0.12,meteohub,2013-05-28 00:50:00,
2013-05-27 20:55:00,52.0,50.4,29.94,East,97,10.0,19.0,94,0.00,,,0.12,meteohub,2013-05-28 00:55:00,
2013-05-27 21:00:00,52.0,50.4,29.95,ESE,116,6.0,19.0,94,0.00,,,0.12,meteohub,2013-05-28 01:00:00,
2013-05-27 21:05:00,52.2,50.5,29.94,SE,127,9.0,19.0,94,0.00,,,0.12,meteohub,2013-05-28 01:05:00,
2013-05-27 21:10:00,52.2,50.5,29.95,SE,133,9.0,19.0,94,0.00,,,0.12,meteohub,2013-05-28 01:10:00,
2013-05-27 21:15:00,52.2,50.5,29.94,East,86,8.0,19.0,94,0.00,,,0.12,meteohub,2013-05-28 01:15:00,
2013-05-27 21:20:00,52.2,50.5,29.94,ESE,115,6.0,14.0,94,0.00,,,0.12,meteohub,2013-05-28 01:20:00,
2013-05-27 21:25:00,52.2,50.5,29.94,ESE,104,8.0,14.0,94,0.00,,,0.12,meteohub,2013-05-28 01:25:00,
2013-05-27 21:30:00,52.2,50.5,29.94,ESE,102,5.0,14.0,94,0.00,,,0.12,meteohub,2013-05-28 01:30:00,
2013-05-27 21:35:00,52.3,50.7,29.95,ESE,110,6.0,14.0,94,0.00,,,0.12,meteohub,2013-05-28 01:35:00,
2013-05-27 21:40:00,52.3,50.7,29.94,East,82,10.0,14.0,94,0.00,,,0.12,meteohub,2013-05-28 01:40:00,
2013-05-27 21:45:00,52.3,50.7,29.94,ESE,116,6.0,15.0,94,0.00,,,0.12,meteohub,2013-05-28 01:45:00,
2013-05-27 21:50:00,52.3,50.7,29.95,East,91,3.0,15.0,94,0.00,,,0.12,meteohub,2013-05-28 01:50:00,
2013-05-27 21:55:00,52.3,50.7,29.95,ESE,119,6.0,15.0,94,0.00,,,0.12,meteohub,2013-05-28 01:55:00,
2013-05-27 22:00:00,52.3,50.7,29.95,East,101,7.0,15.0,94,0.00,,,0.12,meteohub,2013-05-28 02:00:00,
2013-05-27 22:05:00,52.3,50.7,29.95,SE,129,7.0,15.0,94,0.00,,,0.12,meteohub,2013-05-28 02:05:00,
2013-05-27 22:10:00,52.5,50.9,29.95,ENE,77,9.0,15.0,94,0.00,,,0.12,meteohub,2013-05-28 02:10:00,
2013-05-27 22:15:00,52.5,50.9,29.94,East,84,4.0,15.0,94,0.00,,,0.12,meteohub,2013-05-28 02:15:00,
2013-05-27 22:21:00,52.5,50.9,29.95,ESE,105,3.0,15.0,94,0.00,,,0.12,meteohub,2013-05-28 02:21:00,
2013-05-27 22:25:00,52.5,50.9,29.94,ESE,113,7.0,15.0,94,0.00,,,0.12,meteohub,2013-05-28 02:25:00,
2013-05-27 22:31:00,52.5,50.9,29.94,East,89,11.0,15.0,94,0.00,,,0.12,meteohub,2013-05-28 02:31:00,
2013-05-27 22:36:00,52.5,50.9,29.94,East,96,8.0,12.0,94,0.00,,,0.12,meteohub,2013-05-28 02:36:00,
2013-05-27 22:41:00,52.5,50.9,29.94,East,86,14.0,14.0,94,0.00,,,0.12,meteohub,2013-05-28 02:41:00,
2013-05-27 22:46:00,52.5,50.9,29.94,ENE,77,6.0,12.0,94,0.00,,,0.12,meteohub,2013-05-28 02:46:00,
2013-05-27 22:51:00,52.5,50.9,29.94,ESE,121,10.0,12.0,94,0.00,,,0.12,meteohub,2013-05-28 02:51:00,
2013-05-27 22:56:00,52.5,50.9,29.94,East,88,7.0,14.0,94,0.00,,,0.12,meteohub,2013-05-28 02:56:00,
2013-05-27 23:01:00,52.3,50.9,29.94,East,85,11.0,14.0,95,0.00,,,0.12,meteohub,2013-05-28 03:01:00,
2013-05-27 23:06:00,52.3,50.9,29.94,ESE,108,8.0,14.0,95,0.00,,,0.12,meteohub,2013-05-28 03:06:00,
2013-05-27 23:11:00,52.3,50.9,29.94,East,99,7.0,14.0,95,0.00,,,0.12,meteohub,2013-05-28 03:11:00,
2013-05-27 23:16:00,52.3,50.9,29.94,East,101,7.0,14.0,95,0.00,,,0.12,meteohub,2013-05-28 03:16:00,
2013-05-27 23:21:00,52.5,51.1,29.94,ENE,74,4.0,11.0,95,0.00,,,0.12,meteohub,2013-05-28 03:21:00,
2013-05-27 23:26:00,52.5,51.1,29.94,ENE,73,5.0,11.0,95,0.00,,,0.12,meteohub,2013-05-28 03:26:00,
2013-05-27 23:31:00,52.5,51.1,29.93,East,82,6.0,11.0,95,0.00,,,0.12,meteohub,2013-05-28 03:31:00,
2013-05-27 23:36:00,52.5,51.1,29.92,ESE,105,13.0,13.0,95,0.00,,,0.12,meteohub,2013-05-28 03:36:00,
2013-05-27 23:41:00,52.5,51.1,29.92,East,86,6.0,11.0,95,0.00,,,0.12,meteohub,2013-05-28 03:41:00,
2013-05-27 23:46:00,52.7,51.3,29.92,ESE,108,6.0,16.0,95,0.00,,,0.12,meteohub,2013-05-28 03:46:00,
2013-05-27 23:51:00,52.7,51.3,29.92,East,98,7.0,16.0,95,0.00,,,0.12,meteohub,2013-05-28 03:51:00,
2013-05-27 23:56:00,52.7,51.3,29.92,East,89,7.0,16.0,95,0.00,,,0.12,meteohub,2013-05-28 03:56:00,